{"data":{"norad_id":64685,"epoch":"2026-09-20T09:39:58.918464Z","epoch_age_seconds":139718,"freshness":"FRESH","line1":"1 64685U 25139X   26263.40276526  .00011526  00000+0  35168-3 0  9990","line2":"2 64685  53.1613 298.4942 0002013  84.8121 275.3112 15.34406010 70156","mean_motion":15.3440601,"eccentricity":0.0002013,"inclination_deg":53.1613,"raan_deg":298.4942,"arg_perigee_deg":84.8121,"mean_anomaly_deg":275.3112,"bstar":0.00035168,"rev_number":7015,"period_min":93.847390496079,"perigee_km":461.30831973431,"apogee_km":464.06243482341,"semimajor_km":6840.8223772789,"source":"CELESTRAK","updated_at":"2026-09-21T09:00:35.401245Z"}}